AirNav   Everest Fuels
 
 924 users online  

KTNT Dade-Collier Training and Transition Airport
Miami, Florida, USA

GOING TO MIAMI?


FAA INFORMATION EFFECTIVE 18 JUNE 2020

Location

FAA Identifier: TNT
Lat/Long: 25-51-42.5000N 080-53-49.2000W
25-51.708333N 080-53.820000W
25.8618056,-80.8970000
(estimated)
Elevation: 12.7 ft. / 3.9 m (surveyed)
Variation: 05W (2005)
From city: 36 miles W of MIAMI, FL
Time zone: UTC -4 (UTC -5 during Standard Time)
Zip code: 34141

Airport Operations

Airport use: Open to the public, ARPT CLSD TO PUBLIC EXCP BY ARRANGEMENT WITH MIAMI-DADE AVIATION DEPT MIAMI 305-869-1660.
Control tower: no
ARTCC: MIAMI CENTER
FSS: MIAMI FLIGHT SERVICE STATION
NOTAMs facility: MIA (NOTAM-D service available)
Attendance: CONTINUOUS
Wind indicator: lighted
Segmented circle: yes
Beacon: white-green (lighted land airport)
Operates sunset to sunrise.
Landing fee: yes

Airport Communications

CTAF/UNICOM: 123.0
WX AWOS-3: 119.075 ((239) 695-9198)
MIAMI APPROACH: 128.6
MIAMI DEPARTURE: 128.6
  • APCH/DEP SVC PRVDD BY MIAMI ATCT ON FREQS 128.6/306.975

Nearby radio navigation aids

VOR radial/distance  VOR name  Freq  Var
DHPr281/29.8DOLPHIN VORTAC113.9004W

Airport Services

Airframe service: NONE
Powerplant service: NONE
Bottled oxygen: NONE
Bulk oxygen: NONE

Runway Information

Runway 9/27

Dimensions: 10499 x 150 ft. / 3200 x 46 m
Surface: asphalt/porous friction courses, in good condition
Weight bearing capacity: 
PCN 65 /F/A/X/T
Single wheel: 130.0
Double wheel: 200.0
Double tandem: 400.0
Dual double tandem: 800.0
Runway edge lights: high intensity
RUNWAY 9  RUNWAY 27
Latitude: 25-51.708232N25-51.707022N
Longitude: 080-54.777252W080-52.861753W
Elevation: 12.6 ft.12.4 ft.
Traffic pattern: leftright
Runway heading: 095 magnetic, 090 true275 magnetic, 270 true
Markings: precision, in good conditionprecision, in good condition
Approach lights: MALSR: 1,400 foot medium intensity approach lighting system with runway alignment indicator lights
Touchdown point: yes, no lightsyes, no lights
Instrument approach: ILS
Obstructions: none26 ft. trees, 1075 ft. from runway, 290 ft. right of centerline, 34:1 slope to clear

Airport Ownership and Management from official FAA records

Ownership: Publicly-owned
Owner: MIAMI-DADE COUNTY
MIAMI-DADE AVIATION DEPARTMENT, P.O. BOX 025504
MIAMI, FL 33102-5504
Phone (305) 876-0464
Manager: NELSON MEJIAS
14201 NORTHWEST LEJEUNE ROAD
OPA-LOCKA, FL 33054
Phone (305) 869-1662
AIRPORT PHYSICAL ADDRESS: 54757 EAST TAMIAMI TRAIL, OCHOPPI, FL 34141 239-695-3300, FAX: 305-876-0565

Airport Operational Statistics

Aircraft operations: avg 40/day *
100% transient general aviation
* for 12-month period ending 10 October 2018

Additional Remarks

A100 ACR TRNG OPNS ONLY.
THREE 8IN WELLS FLUSH MTD BTN RWY AND TWY.
FEE FOR USE FOR ACFT OVER 12500 LBS.
MAEW IN BUFFER ISLAND BTN RY 09/27 & TWY.
WILDLIFE OCCASIONALLY ON & INVOF ARPT.
BE ALERT TO LOW FLYING NATIONAL PARK SVC ACFT ALL QUADRANTS.
NO NGT TIME OPNS EXC WITH PRIOR PMSN FM MIAMI-DADE AVN DEPT 305-869-1660.
FOR CD IF UNA TO CTC ON FSS FREQ, CTC MIAMI APCH AT 305-869-5432.

Instrument Procedures

NOTE: All procedures below are presented as PDF files. If you need a reader for these files, you should download the free Adobe Reader.

NOT FOR NAVIGATION. Please procure official charts for flight.
FAA instrument procedures published for use from 18 June 2020 at 0901Z to 16 July 2020 at 0900Z.

 
IAPs - Instrument Approach Procedures
RNAV (GPS) RWY 09   download (253KB)

Other nearby airports with instrument procedures:

KTMB - Miami Executive Airport (28 nm SE)
X51 - Miami Homestead General Aviation Airport (29 nm SE)
KMIA - Miami International Airport (33 nm E)
KOPF - Miami-Opa Locka Executive Airport (34 nm E)
KHST - Homestead Air Reserve Base (36 nm SE)
 
Loc | Ops | Rwys | IFR | FBO | Links
Com | Nav | Svcs | Stats | Notes

Reliance Aviation
AirBoss

 
Area around KTNT (Dade-Collier Training and Transition Airport)
 
Road maps at: MapQuest Bing Google
 
Aerial photo
WARNING: Photo may not be current or correct
Aerial photo of KTNT (Dade-Collier Training and Transition Airport)
Do you have a better or more recent aerial photo of Dade-Collier Training and Transition Airport that you would like to share? If so, please send us your photo.

 
Sectional chart

 
Airport distance calculator
Flying to Dade-Collier Training and Transition Airport? Find the distance to fly.

From to KTNT

Sunrise and sunset
Times for 03-Jul-2020
 Local
(UTC-4)
 Zulu
(UTC)
Morning civil twilight06:1210:12
Sunrise06:3810:38
Sunset20:1800:18
Evening civil twilight20:4400:44

Current date and time
Zulu (UTC)  03-Jul-2020 13:53:00
Local (UTC-4)  03-Jul-2020 09:53:00
 
METAR
KTMB 
28nm SE 
031253Z 24004KT 10SM CLR 30/25 A2998 RMK AO2 SLP151 T03000250
KMIA 
32nm E 
031253Z 00000KT 10SM FEW025 SCT250 31/23 A2998 RMK AO2 SLP153 T03110233 $
KOPF 
33nm E 
031253Z 24004KT 10SM CLR 29/23 A2998 RMK AO2 SLP154 T02890233 $
KHWO 
37nm E 
031253Z VRB03KT 10SM CLR 29/24 A2999 RMK AO2 SLP155 T02940244
KHST 
37nm SE 
031256Z AUTO 00000KT 10SM CLR 30/23 A2998 RMK AO2 SLP156 T03000232
KFLL 
42nm E 
031253Z 30006KT 10SM FEW028 BKN250 29/25 A2997 RMK AO2 SLP148 T02940250
KMKY 
43nm W 
031256Z AUTO 23005KT 10SM FEW030 31/24 A2999 RMK AO2 SLP155 T03060239 TSNO
KFXE 
43nm NE 
031253Z 25005KT 10SM FEW020 29/24 A2998 RMK AO2 SLP153 T02940244
KIMM 
44nm NW 
031335Z AUTO 22004KT 10SM CLR 31/24 A2998 RMK AO2
KPMP 
48nm NE 
031253Z 27005KT 10SM CLR 28/24 A2998 RMK AO2 SLP151 T02830239
TAF
KTMB 
28nm SE 
031126Z 0312/0412 VRB04KT P6SM FEW040 SCT120 BKN250 FM031700 17010KT P6SM SCT040 SCT250 FM032100 20008KT P6SM VCTS SCT050CB SCT250 FM040300 VRB03KT P6SM FEW040 SCT250
KMIA 
32nm E 
031126Z 0312/0418 VRB04KT P6SM FEW025 SCT250 FM031700 16010KT P6SM SCT040 SCT250 FM040000 20008KT P6SM VCTS SCT050CB SCT250 FM040300 VRB03KT P6SM FEW040 SCT250
KOPF 
33nm E 
031126Z 0312/0412 VRB04KT P6SM FEW040 SCT200 FM031700 17010KT P6SM SCT040 SCT250 FM032100 21008KT P6SM VCTS SCT050CB SCT250 FM040300 VRB04KT P6SM FEW040 SCT250
NOTAMs
Click for the latest NOTAMs
NOTAMs are issued by the DoD/FAA and will open in a separate window not controlled by AirNav.

 

 
 

Would you like to see your business listed on this page?

 If your business provides an interesting product or service to pilots, flight crews, aircraft, or users of the Dade-Collier Training and Transition Airport, you should consider listing it here.  To start the listing process, click on the button below
 
Add a business
 

Other Pages about Dade-Collier Training and Transition Airport

Update a link
 
Copyright © AirNav, LLC. All rights reserved. Privacy Policy  Contact